{"data":{"norad_id":52499,"epoch":"2026-05-25T06:00:02.000160Z","epoch_age_seconds":53363,"freshness":"FRESH","line1":"1 52499U 22049BA  26145.25002315  .01081996  00000+0  28341-1 0  9994","line2":"2 52499  53.2290  63.7704 0001237  78.7915  33.5726 15.35454678  5794","mean_motion":15.35454678,"eccentricity":0.0001237,"inclination_deg":53.229,"raan_deg":63.7704,"arg_perigee_deg":78.7915,"mean_anomaly_deg":33.5726,"bstar":0.028341,"rev_number":579,"period_min":93.783295634337,"perigee_km":458.72448499567,"apogee_km":460.41613378401,"semimajor_km":6837.7073093898,"source":"CELESTRAK","updated_at":"2026-05-25T13:38:17.159649Z"}}